"Sample Date","Sample Time","Sensor Name","Sample Value","Units","Flow Rate","Sample Interval","Sample Volume","Laser Status","Number Channels","Micron Size 0","Counts/Channel 0","Micron Size 1","Counts/Channel 1","Micron Size 2","Counts/Channel 2","Micron Size 3","Counts/Channel 3","Micron Size 4","Counts/Channel 4","Micron Size 5","Counts/Channel 5","Micron Size 6","Counts/Channel 6","Micron Size 7","Counts/Channel 7","Micron Size 8","Counts/Channel 8","Micron Size 9","Counts/Channel 9","Micron Size 10","Counts/Channel 10","Micron Size 11","Counts/Channel 11","Micron Size 12","Counts/Channel 12","Micron Size 13","Counts/Channel 13","Micron Size 14","Counts/Channel 14","Micron Size 15","Counts/Channel 15","Micron Size 16","Counts/Channel 16","Micron Size 17","Counts/Channel 17","Micron Size 18","Counts/Channel 18","Micron Size 19","Counts/Channel 19","Micron Size 20","Counts/Channel 20","Micron Size 21","Counts/Channel 21","Micron Size 22","Counts/Channel 22","Micron Size 23","Counts/Channel 23","Micron Size 24","Counts/Channel 24","Micron Size 25","Counts/Channel 25","Micron Size 26","Counts/Channel 26","Micron Size 27","Counts/Channel 27","Micron Size 28","Counts/Channel 28","Micron Size 29","Counts/Channel 29","Micron Size 30","Counts/Channel 30","Micron Size 31","Counts/Channel 31"
"07/01/06","04:00:04","AMMA06",60317.000,"cc",28295.234,6.00,2829.524,1,6,0.100,33476.000,0.200,21103.000,0.300,4516.000,0.500,722.000,1.000,499.000,5.000,1.000
"07/01/06","04:00:10","AMMA06",60081.000,"cc",28275.072,6.00,2827.507,1,6,0.100,33099.000,0.200,21172.000,0.300,4585.000,0.500,760.000,1.000,465.000,5.000,0
"07/01/06","04:00:16","AMMA06",60423.000,"cc",28316.900,6.00,2831.690,1,6,0.100,33218.000,0.200,21397.000,0.300,4559.000,0.500,728.000,1.000,519.000,5.000,2.000
"07/01/06","04:00:22","AMMA06",60171.000,"cc",28334.615,6.00,2833.462,1,6,0.100,33102.000,0.200,21175.000,0.300,4611.000,0.500,736.000,1.000,547.000,5.000,0
"07/01/06","04:00:28","AMMA06",60737.000,"cc",28305.186,6.00,2830.519,1,6,0.100,33736.000,0.200,21285.000,0.300,4508.000,0.500,694.000,1.000,513.000,5.000,1.000
"07/01/06","04:00:34","AMMA06",60459.000,"cc",28338.502,6.00,2833.850,1,6,0.100,33369.000,0.200,21172.000,0.300,4650.000,0.500,750.000,1.000,518.000,5.000,0
"07/01/06","04:00:40","AMMA06",60088.000,"cc",28317.231,6.00,2831.723,1,6,0.100,32852.000,0.200,21275.000,0.300,4715.000,0.500,729.000,1.000,514.000,5.000,3.000
"07/01/06","04:00:46","AMMA06",60197.000,"cc",28366.412,6.00,2836.641,1,6,0.100,33139.000,0.200,21160.000,0.300,4638.000,0.500,718.000,1.000,541.000,5.000,1.000
"07/01/06","04:00:52","AMMA06",60515.000,"cc",28305.690,6.00,2830.569,1,6,0.100,33172.000,0.200,21479.000,0.300,4582.000,0.500,762.000,1.000,520.000,5.000,0
"07/01/06","04:00:58","AMMA06",60329.000,"cc",28275.742,6.00,2827.575,1,6,0.100,33246.000,0.200,21070.000,0.300,4771.000,0.500,717.000,1.000,525.000,5.000,0
"07/01/06","04:01:04","AMMA06",60631.000,"cc",28312.770,6.00,2831.277,1,6,0.100,33547.000,0.200,21238.000,0.300,4632.000,0.500,673.000,1.000,541.000,5.000,0
"07/01/06","04:01:10","AMMA06",60489.000,"cc",28343.522,6.00,2834.352,1,6,0.100,32803.000,0.200,21730.000,0.300,4730.000,0.500,696.000,1.000,529.000,5.000,1.000
"07/01/06","04:01:16","AMMA06",60679.000,"cc",28335.318,6.00,2833.532,1,6,0.100,33405.000,0.200,21474.000,0.300,4543.000,0.500,693.000,1.000,564.000,5.000,0
"07/01/06","04:01:22","AMMA06",60066.000,"cc",28284.857,6.00,2828.486,1,6,0.100,32926.000,0.200,21288.000,0.300,4610.000,0.500,714.000,1.000,527.000,5.000,1.000
"07/01/06","04:01:28","AMMA06",60314.000,"cc",28356.381,6.00,2835.638,1,6,0.100,33166.000,0.200,21299.000,0.300,4580.000,0.500,747.000,1.000,521.000,5.000,1.000
"07/01/06","04:01:34","AMMA06",60054.000,"cc",28343.877,6.00,2834.388,1,6,0.100,33099.000,0.200,21051.000,0.300,4619.000,0.500,747.000,1.000,538.000,5.000,0
"07/01/06","04:01:40","AMMA06",60291.000,"cc",28332.379,6.00,2833.238,1,6,0.100,33184.000,0.200,21229.000,0.300,4630.000,0.500,726.000,1.000,521.000,5.000,1.000
"07/01/06","04:01:46","AMMA06",60410.000,"cc",28303.965,6.00,2830.397,1,6,0.100,33282.000,0.200,21408.000,0.300,4487.000,0.500,695.000,1.000,538.000,5.000,0
"07/01/06","04:01:52","AMMA06",60290.000,"cc",28283.008,6.00,2828.301,1,6,0.100,33217.000,0.200,21197.000,0.300,4582.000,0.500,762.000,1.000,531.000,5.000,1.000
"07/01/06","04:01:58","AMMA06",60935.000,"cc",28287.539,6.00,2828.754,1,6,0.100,33396.000,0.200,21484.000,0.300,4786.000,0.500,732.000,1.000,536.000,5.000,1.000
"07/01/06","04:02:04","AMMA06",59958.000,"cc",28338.533,6.00,2833.854,1,6,0.100,33111.000,0.200,21048.000,0.300,4571.000,0.500,693.000,1.000,532.000,5.000,3.000
"07/01/06","04:02:10","AMMA06",60524.000,"cc",28356.150,6.00,2835.615,1,6,0.100,33343.000,0.200,21181.000,0.300,4686.000,0.500,802.000,1.000,511.000,5.000,1.000
"07/01/06","04:02:16","AMMA06",59684.000,"cc",28361.898,6.00,2836.190,1,6,0.100,32806.000,0.200,20963.000,0.300,4680.000,0.500,740.000,1.000,494.000,5.000,1.000
"07/01/06","04:02:22","AMMA06",59925.000,"cc",28260.897,6.00,2826.090,1,6,0.100,32998.000,0.200,21200.000,0.300,4515.000,0.500,711.000,1.000,501.000,5.000,0
"07/01/06","04:02:28","AMMA06",60224.000,"cc",28312.574,6.00,2831.258,1,6,0.100,33139.000,0.200,21337.000,0.300,4515.000,0.500,757.000,1.000,475.000,5.000,1.000
"07/01/06","04:02:34","AMMA06",60496.000,"cc",28297.953,6.00,2829.795,1,6,0.100,33304.000,0.200,21392.000,0.300,4547.000,0.500,731.000,1.000,520.000,5.000,2.000
"07/01/06","04:02:40","AMMA06",60573.000,"cc",28345.152,6.00,2834.515,1,6,0.100,33643.000,0.200,21253.000,0.300,4439.000,0.500,734.000,1.000,503.000,5.000,1.000
"07/01/06","04:02:46","AMMA06",60638.000,"cc",28343.348,6.00,2834.335,1,6,0.100,33457.000,0.200,21283.000,0.300,4693.000,0.500,704.000,1.000,501.000,5.000,0
"07/01/06","04:02:52","AMMA06",61280.000,"cc",28285.063,6.00,2828.506,1,6,0.100,33895.000,0.200,21416.000,0.300,4699.000,0.500,741.000,1.000,529.000,5.000,0
"07/01/06","04:02:58","AMMA06",61592.000,"cc",28344.219,6.00,2834.422,1,6,0.100,34302.000,0.200,21382.000,0.300,4669.000,0.500,727.000,1.000,512.000,5.000,0
"07/01/06","04:03:04","AMMA06",61375.000,"cc",28309.076,6.00,2830.908,1,6,0.100,33884.000,0.200,21507.000,0.300,4717.000,0.500,767.000,1.000,500.000,5.000,0
"07/01/06","04:03:10","AMMA06",61052.000,"cc",28329.193,6.00,2832.919,1,6,0.100,33902.000,0.200,21251.000,0.300,4634.000,0.500,741.000,1.000,523.000,5.000,1.000
"07/01/06","04:03:16","AMMA06",61293.000,"cc",28287.877,6.00,2828.788,1,6,0.100,34055.000,0.200,21269.000,0.300,4679.000,0.500,780.000,1.000,509.000,5.000,1.000
"07/01/06","04:03:22","AMMA06",61356.000,"cc",28304.393,6.00,2830.440,1,6,0.100,34033.000,0.200,21259.000,0.300,4792.000,0.500,730.000,1.000,542.000,5.000,0
"07/01/06","04:03:28","AMMA06",61085.000,"cc",28326.481,6.00,2832.648,1,6,0.100,33983.000,0.200,21196.000,0.300,4679.000,0.500,699.000,1.000,526.000,5.000,2.000
"07/01/06","04:03:34","AMMA06",61256.000,"cc",28339.092,6.00,2833.909,1,6,0.100,34128.000,0.200,21307.000,0.300,4585.000,0.500,736.000,1.000,499.000,5.000,1.000
"07/01/06","04:03:40","AMMA06",61420.000,"cc",28335.611,6.00,2833.561,1,6,0.100,34170.000,0.200,21313.000,0.300,4660.000,0.500,762.000,1.000,515.000,5.000,0
"07/01/06","04:03:46","AMMA06",61315.000,"cc",28266.133,6.00,2826.614,1,6,0.100,34056.000,0.200,21314.000,0.300,4675.000,0.500,748.000,1.000,521.000,5.000,1.000
"07/01/06","04:03:52","AMMA06",61427.000,"cc",28306.840,6.00,2830.684,1,6,0.100,34044.000,0.200,21486.000,0.300,4626.000,0.500,773.000,1.000,497.000,5.000,1.000
"07/01/06","04:03:58","AMMA06",61297.000,"cc",28327.309,6.00,2832.731,1,6,0.100,34101.000,0.200,21250.000,0.300,4680.000,0.500,766.000,1.000,500.000,5.000,0
"07/01/06","04:04:04","AMMA06",62089.000,"cc",28282.871,6.00,2828.287,1,6,0.100,34568.000,0.200,21659.000,0.300,4600.000,0.500,754.000,1.000,507.000,5.000,1.000
"07/01/06","04:04:10","AMMA06",61599.000,"cc",28314.756,6.00,2831.476,1,6,0.100,34233.000,0.200,21568.000,0.300,4544.000,0.500,725.000,1.000,528.000,5.000,1.000
"07/01/06","04:04:16","AMMA06",61249.000,"cc",28372.236,6.00,2837.224,1,6,0.100,34224.000,0.200,21048.000,0.300,4713.000,0.500,727.000,1.000,536.000,5.000,1.000
"07/01/06","04:04:22","AMMA06",61252.000,"cc",28328.418,6.00,2832.842,1,6,0.100,34494.000,0.200,20863.000,0.300,4608.000,0.500,761.000,1.000,525.000,5.000,1.000
"07/01/06","04:04:28","AMMA06",61307.000,"cc",28292.479,6.00,2829.248,1,6,0.100,34365.000,0.200,21175.000,0.300,4513.000,0.500,763.000,1.000,489.000,5.000,2.000
"07/01/06","04:04:34","AMMA06",61571.000,"cc",28310.762,6.00,2831.076,1,6,0.100,34822.000,0.200,21114.000,0.300,4433.000,0.500,716.000,1.000,485.000,5.000,1.000
"07/01/06","04:04:40","AMMA06",61232.000,"cc",28307.787,6.00,2830.779,1,6,0.100,34448.000,0.200,21096.000,0.300,4431.000,0.500,762.000,1.000,495.000,5.000,0
"07/01/06","04:04:46","AMMA06",60801.000,"cc",28319.205,6.00,2831.921,1,6,0.100,34088.000,0.200,21077.000,0.300,4409.000,0.500,747.000,1.000,479.000,5.000,1.000
"07/01/06","04:04:52","AMMA06",60896.000,"cc",28282.709,6.00,2828.271,1,6,0.100,34018.000,0.200,21036.000,0.300,4530.000,0.500,788.000,1.000,524.000,5.000,0
"07/01/06","04:04:58","AMMA06",61081.000,"cc",28344.268,6.00,2834.427,1,6,0.100,34329.000,0.200,21014.000,0.300,4491.000,0.500,760.000,1.000,485.000,5.000,2.000
"07/01/06","04:05:04","AMMA06",60936.000,"cc",28304.512,6.00,2830.451,1,6,0.100,34228.000,0.200,21145.000,0.300,4422.000,0.500,661.000,1.000,480.000,5.000,0
"07/01/06","04:05:10","AMMA06",60414.000,"cc",28286.002,6.00,2828.600,1,6,0.100,33729.000,0.200,20933.000,0.300,4567.000,0.500,734.000,1.000,450.000,5.000,1.000
"07/01/06","04:05:16","AMMA06",60819.000,"cc",28310.340,6.00,2831.034,1,6,0.100,34055.000,0.200,21052.000,0.300,4538.000,0.500,677.000,1.000,497.000,5.000,0
"07/01/06","04:05:22","AMMA06",60839.000,"cc",28355.541,6.00,2835.554,1,6,0.100,33897.000,0.200,21183.000,0.300,4518.000,0.500,718.000,1.000,521.000,5.000,2.000
"07/01/06","04:05:28","AMMA06",60672.000,"cc",28312.549,6.00,2831.255,1,6,0.100,33863.000,0.200,21039.000,0.300,4491.000,0.500,765.000,1.000,513.000,5.000,1.000
"07/01/06","04:05:34","AMMA06",60714.000,"cc",28300.350,6.00,2830.035,1,6,0.100,33867.000,0.200,21058.000,0.300,4586.000,0.500,744.000,1.000,457.000,5.000,2.000
"07/01/06","04:05:40","AMMA06",61146.000,"cc",28303.291,6.00,2830.329,1,6,0.100,34235.000,0.200,21116.000,0.300,4532.000,0.500,770.000,1.000,493.000,5.000,0
"07/01/06","04:05:46","AMMA06",60667.000,"cc",28327.682,6.00,2832.768,1,6,0.100,33818.000,0.200,20983.000,0.300,4606.000,0.500,757.000,1.000,503.000,5.000,0
"07/01/06","04:05:52","AMMA06",60988.000,"cc",28299.410,6.00,2829.941,1,6,0.100,33717.000,0.200,21442.000,0.300,4537.000,0.500,774.000,1.000,517.000,5.000,1.000
"07/01/06","04:05:58","AMMA06",60576.000,"cc",28333.738,6.00,2833.374,1,6,0.100,33621.000,0.200,21161.000,0.300,4598.000,0.500,706.000,1.000,490.000,5.000,0
"07/01/06","04:06:04","AMMA06",61289.000,"cc",28292.928,6.00,2829.293,1,6,0.100,34217.000,0.200,21207.000,0.300,4650.000,0.500,748.000,1.000,465.000,5.000,2.000
"07/01/06","04:06:10","AMMA06",60955.000,"cc",28299.389,6.00,2829.939,1,6,0.100,33868.000,0.200,21273.000,0.300,4583.000,0.500,732.000,1.000,499.000,5.000,0
"07/01/06","04:06:16","AMMA06",60678.000,"cc",28333.461,6.00,2833.346,1,6,0.100,33515.000,0.200,21310.000,0.300,4629.000,0.500,733.000,1.000,490.000,5.000,1.000
"07/01/06","04:06:22","AMMA06",60912.000,"cc",28339.803,6.00,2833.981,1,6,0.100,33502.000,0.200,21577.000,0.300,4599.000,0.500,745.000,1.000,488.000,5.000,1.000
"07/01/06","04:06:28","AMMA06",60522.000,"cc",28332.752,6.00,2833.275,1,6,0.100,33071.000,0.200,21501.000,0.300,4684.000,0.500,772.000,1.000,493.000,5.000,1.000
"07/01/06","04:06:34","AMMA06",60632.000,"cc",28298.318,6.00,2829.832,1,6,0.100,33307.000,0.200,21427.000,0.300,4606.000,0.500,736.000,1.000,556.000,5.000,0
"07/01/06","04:06:40","AMMA06",60177.000,"cc",28281.090,6.00,2828.109,1,6,0.100,33205.000,0.200,21186.000,0.300,4585.000,0.500,722.000,1.000,478.000,5.000,1.000
"07/01/06","04:06:46","AMMA06",60221.000,"cc",28311.053,6.00,2831.106,1,6,0.100,33039.000,0.200,21319.000,0.300,4636.000,0.500,732.000,1.000,495.000,5.000,0
"07/01/06","04:06:52","AMMA06",60859.000,"cc",28344.936,6.00,2834.494,1,6,0.100,33341.000,0.200,21592.000,0.300,4700.000,0.500,701.000,1.000,524.000,5.000,1.000
"07/01/06","04:06:58","AMMA06",60487.000,"cc",28310.193,6.00,2831.020,1,6,0.100,32768.000,0.200,21674.000,0.300,4777.000,0.500,747.000,1.000,519.000,5.000,2.000
"07/01/06","04:07:04","AMMA06",60383.000,"cc",28362.066,6.00,2836.207,1,6,0.100,32882.000,0.200,21568.000,0.300,4664.000,0.500,733.000,1.000,534.000,5.000,2.000
"07/01/06","04:07:10","AMMA06",60636.000,"cc",28319.734,6.00,2831.974,1,6,0.100,32990.000,0.200,21633.000,0.300,4724.000,0.500,780.000,1.000,508.000,5.000,1.000
"07/01/06","04:07:16","AMMA06",60379.000,"cc",28293.797,6.00,2829.380,1,6,0.100,33092.000,0.200,21370.000,0.300,4694.000,0.500,723.000,1.000,500.000,5.000,0
"07/01/06","04:07:22","AMMA06",60484.000,"cc",28342.113,6.00,2834.211,1,6,0.100,32873.000,0.200,21508.000,0.300,4831.000,0.500,754.000,1.000,517.000,5.000,1.000
"07/01/06","04:07:28","AMMA06",60094.000,"cc",28332.264,6.00,2833.227,1,6,0.100,32633.000,0.200,21518.000,0.300,4802.000,0.500,679.000,1.000,462.000,5.000,0
"07/01/06","04:07:34","AMMA06",60123.000,"cc",28280.604,6.00,2828.061,1,6,0.100,32685.000,0.200,21342.000,0.300,4837.000,0.500,717.000,1.000,541.000,5.000,1.000
"07/01/06","04:07:40","AMMA06",60404.000,"cc",28311.051,6.00,2831.105,1,6,0.100,32710.000,0.200,21631.000,0.300,4790.000,0.500,738.000,1.000,533.000,5.000,2.000
"07/01/06","04:07:46","AMMA06",60449.000,"cc",28320.170,6.00,2832.017,1,6,0.100,32856.000,0.200,21588.000,0.300,4806.000,0.500,704.000,1.000,495.000,5.000,0
"07/01/06","04:07:52","AMMA06",60806.000,"cc",28321.303,6.00,2832.130,1,6,0.100,33106.000,0.200,21611.000,0.300,4836.000,0.500,731.000,1.000,521.000,5.000,1.000
"07/01/06","04:07:58","AMMA06",60230.000,"cc",28299.959,6.00,2829.996,1,6,0.100,32796.000,0.200,21365.000,0.300,4766.000,0.500,766.000,1.000,537.000,5.000,0
"07/01/06","04:08:04","AMMA06",60425.000,"cc",28283.580,6.00,2828.358,1,6,0.100,32801.000,0.200,21669.000,0.300,4717.000,0.500,721.000,1.000,515.000,5.000,2.000
"07/01/06","04:08:10","AMMA06",60229.000,"cc",28317.783,6.00,2831.779,1,6,0.100,32926.000,0.200,21347.000,0.300,4711.000,0.500,716.000,1.000,528.000,5.000,1.000
"07/01/06","04:08:16","AMMA06",60554.000,"cc",28329.193,6.00,2832.919,1,6,0.100,32875.000,0.200,21636.000,0.300,4848.000,0.500,693.000,1.000,502.000,5.000,0
"07/01/06","04:08:22","AMMA06",60082.000,"cc",28388.504,6.00,2838.851,1,6,0.100,32763.000,0.200,21312.000,0.300,4781.000,0.500,729.000,1.000,495.000,5.000,2.000
"07/01/06","04:08:28","AMMA06",60007.000,"cc",28271.756,6.00,2827.176,1,6,0.100,32900.000,0.200,21161.000,0.300,4698.000,0.500,735.000,1.000,512.000,5.000,1.000
"07/01/06","04:08:34","AMMA06",60503.000,"cc",28326.022,6.00,2832.602,1,6,0.100,33108.000,0.200,21527.000,0.300,4657.000,0.500,684.000,1.000,526.000,5.000,1.000
"07/01/06","04:08:40","AMMA06",60610.000,"cc",28293.055,6.00,2829.306,1,6,0.100,33175.000,0.200,21667.000,0.300,4553.000,0.500,714.000,1.000,500.000,5.000,1.000
"07/01/06","04:08:46","AMMA06",60431.000,"cc",28346.264,6.00,2834.627,1,6,0.100,33265.000,0.200,21272.000,0.300,4643.000,0.500,750.000,1.000,500.000,5.000,1.000
"07/01/06","04:08:52","AMMA06",60449.000,"cc",28324.891,6.00,2832.489,1,6,0.100,32985.000,0.200,21484.000,0.300,4765.000,0.500,710.000,1.000,503.000,5.000,2.000
"07/01/06","04:08:58","AMMA06",60405.000,"cc",28245.385,6.00,2824.539,1,6,0.100,33077.000,0.200,21353.000,0.300,4788.000,0.500,663.000,1.000,524.000,5.000,0
"07/01/06","04:09:04","AMMA06",60457.000,"cc",28332.252,6.00,2833.225,1,6,0.100,33026.000,0.200,21509.000,0.300,4688.000,0.500,708.000,1.000,525.000,5.000,1.000
"07/01/06","04:09:10","AMMA06",60297.000,"cc",28338.484,6.00,2833.849,1,6,0.100,32981.000,0.200,21268.000,0.300,4778.000,0.500,758.000,1.000,511.000,5.000,1.000
"07/01/06","04:09:16","AMMA06",60006.000,"cc",28351.678,6.00,2835.168,1,6,0.100,32671.000,0.200,21366.000,0.300,4698.000,0.500,727.000,1.000,544.000,5.000,0
"07/01/06","04:09:22","AMMA06",59864.000,"cc",28296.969,6.00,2829.697,1,6,0.100,32802.000,0.200,21271.000,0.300,4570.000,0.500,698.000,1.000,522.000,5.000,1.000
"07/01/06","04:09:28","AMMA06",60615.000,"cc",28287.494,6.00,2828.750,1,6,0.100,33152.000,0.200,21530.000,0.300,4706.000,0.500,731.000,1.000,496.000,5.000,0
"07/01/06","04:09:34","AMMA06",60342.000,"cc",28356.580,6.00,2835.658,1,6,0.100,32847.000,0.200,21537.000,0.300,4723.000,0.500,711.000,1.000,524.000,5.000,0
"07/01/06","04:09:40","AMMA06",60306.000,"cc",28332.967,6.00,2833.297,1,6,0.100,33132.000,0.200,21354.000,0.300,4650.000,0.500,678.000,1.000,491.000,5.000,1.000
"07/01/06","04:09:46","AMMA06",60453.000,"cc",28303.199,6.00,2830.320,1,6,0.100,33357.000,0.200,21108.000,0.300,4732.000,0.500,730.000,1.000,525.000,5.000,1.000
"07/01/06","04:09:52","AMMA06",60688.000,"cc",28295.748,6.00,2829.575,1,6,0.100,33363.000,0.200,21488.000,0.300,4589.000,0.500,756.000,1.000,492.000,5.000,0
"07/01/06","04:09:58","AMMA06",60750.000,"cc",28282.484,6.00,2828.249,1,6,0.100,33515.000,0.200,21368.000,0.300,4587.000,0.500,766.000,1.000,514.000,5.000,0
"07/01/06","04:10:04","AMMA06",61244.000,"cc",28309.752,6.00,2830.975,1,6,0.100,33662.000,0.200,21707.000,0.300,4617.000,0.500,752.000,1.000,505.000,5.000,1.000
"07/01/06","04:10:10","AMMA06",61335.000,"cc",28313.900,6.00,2831.390,1,6,0.100,34051.000,0.200,21424.000,0.300,4646.000,0.500,719.000,1.000,495.000,5.000,0
"07/01/06","04:10:16","AMMA06",61161.000,"cc",28343.008,6.00,2834.301,1,6,0.100,33942.000,0.200,21409.000,0.300,4638.000,0.500,687.000,1.000,484.000,5.000,1.000
"07/01/06","04:10:22","AMMA06",60407.000,"cc",28292.098,6.00,2829.210,1,6,0.100,33602.000,0.200,21129.000,0.300,4484.000,0.500,708.000,1.000,484.000,5.000,0
"07/01/06","04:10:28","AMMA06",60417.000,"cc",28303.445,6.00,2830.345,1,6,0.100,33513.000,0.200,21176.000,0.300,4539.000,0.500,702.000,1.000,483.000,5.000,4.000
"07/01/06","04:10:34","AMMA06",60680.000,"cc",28353.356,6.00,2835.336,1,6,0.100,33825.000,0.200,21162.000,0.300,4498.000,0.500,718.000,1.000,476.000,5.000,1.000
"07/01/06","04:10:40","AMMA06",60558.000,"cc",28324.809,6.00,2832.481,1,6,0.100,33590.000,0.200,21162.000,0.300,4618.000,0.500,704.000,1.000,484.000,5.000,0
"07/01/06","04:10:46","AMMA06",60779.000,"cc",28303.764,6.00,2830.377,1,6,0.100,33745.000,0.200,21409.000,0.300,4452.000,0.500,686.000,1.000,487.000,5.000,0
"07/01/06","04:10:52","AMMA06",60653.000,"cc",28311.527,6.00,2831.153,1,6,0.100,34005.000,0.200,21032.000,0.300,4419.000,0.500,725.000,1.000,472.000,5.000,0
"07/01/06","04:10:58","AMMA06",61004.000,"cc",28281.221,6.00,2828.122,1,6,0.100,33977.000,0.200,21291.000,0.300,4541.000,0.500,720.000,1.000,475.000,5.000,0
"07/01/06","04:11:04","AMMA06",60831.000,"cc",28316.773,6.00,2831.678,1,6,0.100,34188.000,0.200,20862.000,0.300,4515.000,0.500,747.000,1.000,516.000,5.000,3.000
"07/01/06","04:11:10","AMMA06",60330.000,"cc",28344.283,6.00,2834.429,1,6,0.100,33568.000,0.200,21062.000,0.300,4459.000,0.500,750.000,1.000,490.000,5.000,1.000
"07/01/06","04:11:16","AMMA06",60912.000,"cc",28313.764,6.00,2831.377,1,6,0.100,34169.000,0.200,21085.000,0.300,4437.000,0.500,750.000,1.000,471.000,5.000,0
"07/01/06","04:11:22","AMMA06",60624.000,"cc",28283.701,6.00,2828.370,1,6,0.100,33867.000,0.200,21114.000,0.300,4461.000,0.500,700.000,1.000,482.000,5.000,0
"07/01/06","04:11:28","AMMA06",60755.000,"cc",28294.971,6.00,2829.497,1,6,0.100,34108.000,0.200,20945.000,0.300,4431.000,0.500,761.000,1.000,509.000,5.000,1.000
"07/01/06","04:11:34","AMMA06",60399.000,"cc",28354.772,6.00,2835.477,1,6,0.100,33844.000,0.200,20944.000,0.300,4357.000,0.500,715.000,1.000,539.000,5.000,0
"07/01/06","04:11:40","AMMA06",60956.000,"cc",28360.672,6.00,2836.067,1,6,0.100,34249.000,0.200,21080.000,0.300,4379.000,0.500,766.000,1.000,479.000,5.000,3.000
"07/01/06","04:11:46","AMMA06",61082.000,"cc",28329.273,6.00,2832.928,1,6,0.100,34163.000,0.200,21252.000,0.300,4424.000,0.500,739.000,1.000,504.000,5.000,0
"07/01/06","04:11:52","AMMA06",60456.000,"cc",28304.971,6.00,2830.497,1,6,0.100,33951.000,0.200,20797.000,0.300,4449.000,0.500,773.000,1.000,484.000,5.000,2.000
"07/01/06","04:11:58","AMMA06",60973.000,"cc",28334.891,6.00,2833.489,1,6,0.100,34312.000,0.200,20991.000,0.300,4458.000,0.500,702.000,1.000,509.000,5.000,1.000
"07/01/06","04:12:04","AMMA06",60280.000,"cc",28301.090,6.00,2830.109,1,6,0.100,33874.000,0.200,20866.000,0.300,4390.000,0.500,662.000,1.000,488.000,5.000,0
"07/01/06","04:12:10","AMMA06",60644.000,"cc",28342.631,6.00,2834.263,1,6,0.100,33712.000,0.200,21167.000,0.300,4512.000,0.500,757.000,1.000,496.000,5.000,0
"07/01/06","04:12:16","AMMA06",60998.000,"cc",28304.598,6.00,2830.460,1,6,0.100,34106.000,0.200,21260.000,0.300,4370.000,0.500,742.000,1.000,518.000,5.000,2.000
"07/01/06","04:12:22","AMMA06",60710.000,"cc",28331.772,6.00,2833.177,1,6,0.100,34090.000,0.200,20959.000,0.300,4447.000,0.500,729.000,1.000,485.000,5.000,0
"07/01/06","04:12:28","AMMA06",59724.000,"cc",28290.732,6.00,2829.074,1,6,0.100,33298.000,0.200,20767.000,0.300,4462.000,0.500,706.000,1.000,490.000,5.000,1.000
"07/01/06","04:12:34","AMMA06",60053.000,"cc",28317.231,6.00,2831.723,1,6,0.100,33617.000,0.200,20877.000,0.300,4339.000,0.500,745.000,1.000,473.000,5.000,2.000
"07/01/06","04:12:40","AMMA06",60504.000,"cc",28335.340,6.00,2833.534,1,6,0.100,33794.000,0.200,21015.000,0.300,4460.000,0.500,733.000,1.000,502.000,5.000,0
"07/01/06","04:12:46","AMMA06",59709.000,"cc",28328.434,6.00,2832.844,1,6,0.100,33132.000,0.200,21075.000,0.300,4280.000,0.500,712.000,1.000,507.000,5.000,3.000
"07/01/06","04:12:52","AMMA06",59730.000,"cc",28272.250,6.00,2827.225,1,6,0.100,33125.000,0.200,21063.000,0.300,4363.000,0.500,708.000,1.000,470.000,5.000,1.000
"07/01/06","04:12:58","AMMA06",59856.000,"cc",28339.467,6.00,2833.947,1,6,0.100,33220.000,0.200,21023.000,0.300,4360.000,0.500,733.000,1.000,520.000,5.000,0
"07/01/06","04:13:04","AMMA06",60141.000,"cc",28283.221,6.00,2828.322,1,6,0.100,33440.000,0.200,21038.000,0.300,4445.000,0.500,705.000,1.000,511.000,5.000,2.000
"07/01/06","04:13:10","AMMA06",59989.000,"cc",28355.459,6.00,2835.546,1,6,0.100,33349.000,0.200,20984.000,0.300,4442.000,0.500,750.000,1.000,463.000,5.000,1.000
"07/01/06","04:13:16","AMMA06",60250.000,"cc",28270.287,6.00,2827.029,1,6,0.100,33469.000,0.200,21189.000,0.300,4389.000,0.500,762.000,1.000,438.000,5.000,3.000
"07/01/06","04:13:22","AMMA06",59966.000,"cc",28345.826,6.00,2834.583,1,6,0.100,33308.000,0.200,21182.000,0.300,4268.000,0.500,738.000,1.000,470.000,5.000,0
"07/01/06","04:13:28","AMMA06",59623.000,"cc",28306.615,6.00,2830.662,1,6,0.100,32974.000,0.200,20997.000,0.300,4433.000,0.500,731.000,1.000,487.000,5.000,1.000
"07/01/06","04:13:34","AMMA06",59959.000,"cc",28306.676,6.00,2830.668,1,6,0.100,33130.000,0.200,21103.000,0.300,4512.000,0.500,708.000,1.000,506.000,5.000,0
"07/01/06","04:13:40","AMMA06",59770.000,"cc",28317.768,6.00,2831.777,1,6,0.100,32850.000,0.200,21239.000,0.300,4500.000,0.500,710.000,1.000,469.000,5.000,2.000
"07/01/06","04:13:46","AMMA06",59861.000,"cc",28303.951,6.00,2830.395,1,6,0.100,33028.000,0.200,21081.000,0.300,4602.000,0.500,681.000,1.000,469.000,5.000,0
"07/01/06","04:13:52","AMMA06",59640.000,"cc",28351.104,6.00,2835.111,1,6,0.100,32847.000,0.200,21088.000,0.300,4535.000,0.500,698.000,1.000,471.000,5.000,1.000
"07/01/06","04:13:58","AMMA06",60031.000,"cc",28302.984,6.00,2830.299,1,6,0.100,33022.000,0.200,21229.000,0.300,4488.000,0.500,775.000,1.000,517.000,5.000,0
"07/01/06","04:14:04","AMMA06",60196.000,"cc",28331.881,6.00,2833.188,1,6,0.100,32910.000,0.200,21452.000,0.300,4647.000,0.500,686.000,1.000,500.000,5.000,1.000